Location: Mountain Grove
(34.0887°N, 86.6172°W)
Time: 21:42:36
(UTC+00:00)

Thor Agena Rocket - Pass Details

Date: 14 July 2020
Orbit: 759 x 808 km, 99.0° (Epoch: 08 August)

Event Time Altitude Azimuth Distance (km) Brightness Sun altitude
Rises 04:16:37 0° 16° (NNE) 3,232 7.4 -29.8°
Reaches altitude 10° 04:18:57 10° 19° (NNE) 2,298 6.5 -30.0°
Enters shadow 04:22:13 40° 33° (NNE) 1,112 4.5 -30.3°
